Regional Weather Roundup
Issued by NWS

Home | Current Version | Previous Version | Text Only | Print | Product List | Glossary On
Versions: 1 2 3 4 5 6 7 8 9 10 11 12 13 14 15 16 17 18 19 20 21 22 23 24 25 26 27 28 29 30 31 32 33 34 35 36 37 38 39 40 41 42 43 44 45 46 47 48 49 50
000
ASUS44 KFWD 170715
RWRTX
NORTH TEXAS HOURLY WEATHER ROUNDUP
NATIONAL WEATHER SERVICE FORT WORTH TX
200 AM CDT TUE OCT 17 2017

NOTE: "FAIR" INDICATES FEW OR NO CLOUDS BELOW 12,000 FEET WITH NO
SIGNIFICANT WEATHER AND/OR OBSTRUCTIONS TO VISIBILITY.

TXZ118-119-170800-
DALLAS/FORT WORTH METROPLEX

CITY           SKY/WX    TMP DP  RH WIND       PRES   REMARKS
DFW AIRPORT    PTCLDY    56  42  59 CALM      30.27S
DALLAS LOVE    CLEAR     54  45  71 CALM      30.29R
FTW MEACHAM    CLEAR     54  44  69 CALM      30.28S
DAL-EXECUTIVE  CLEAR     52  42  69 CALM      30.28S
FTW-ALLIANCE   CLEAR     43  41  93 CALM      30.28F
FTW-NAS-JRB    CLEAR     53  44  71 CALM      30.29F
FTW-SPINKS     CLEAR     44  41  89 CALM      30.30F
ARLINGTON      CLEAR     44  43  96 CALM      30.29S
GRAND PRAIRIE  CLEAR     55  40  56 CALM      30.30S
ADDISON        CLEAR     57  41  55 E6        30.30S
MESQUITE       CLEAR     49  40  70 CALM      30.29S
LANCASTER      CLEAR     46  43  90 CALM      30.30S
$$

TXZ091>094-102>105-117-120-121-131>134-170800-
NORTH CENTRAL TEXAS

CITY           SKY/WX    TMP DP  RH WIND       PRES   REMARKS
SHRMAN/DENISON CLEAR     48  42  80 NE3       30.30S
GAINESVILLE    CLEAR     46  40  79 CALM      30.31S
BOWIE          CLEAR     44  41  88 CALM      30.30S
BRIDGEPORT     CLEAR     43  41  95 CALM      30.31S
DECATUR        CLEAR     57  38  49 S3        30.28S
DENTON         CLEAR     44  42  93 N3        30.29S
MCKINNEY       CLEAR     45  43  93 N3        30.29S
BONHAM         CLEAR     46  43  90 CALM      30.29F
GREENVILLE     CLEAR     46  43  87 CALM      30.29S
ROCKWALL       CLEAR     55  39  55 E3        30.29S
TERRELL        CLEAR     46  41  82 CALM      30.29S
WAXAHACHIE     CLEAR     47  41  80 CALM      30.30S
CLEBURNE       CLEAR     48  43  81 NW5       30.30F
GRANBURY       CLEAR     45  40  83 CALM      30.30F
$$

TXZ083>090-098>101-113>116-127>130-139>142-154-155-170800-
WESTERN NORTH TEXAS

CITY           SKY/WX    TMP DP  RH WIND       PRES   REMARKS
WICHITA FALLS  CLEAR     51  42  71 CALM      30.28F
WF-KICKAPOO    CLEAR     51  42  73 SE5       30.30F
VERNON         CLEAR     49  38  65 S5        30.27F
ABILENE        CLEAR     45  37  73 S8        30.29F
ABILENE-DYESS  CLEAR     42  38  87 S3        30.29F
GRAHAM           N/A     45  45 100 CALM      30.28F
BRECKENRIDGE   CLEAR     47  42  80 SW3       30.30S
CISCO          CLEAR     52  37  58 S5        30.31S
EASTLAND       CLEAR     38  36  94 CALM      30.31R
RANGER         CLEAR     46  39  76 SW5       30.30S
MINERAL WELLS  CLEAR     46  39  76 NW3       30.28S
STEPHENVILLE   CLEAR     47  40  79 CALM      30.32S
COMANCHE       CLEAR     53  38  56 S3        30.30S
BROWNWOOD      CLEAR     41  36  81 CALM      30.31S
COLEMAN        CLEAR     45  36  71 W6        30.31S
$$

TXZ143>147-156>162-174-175-170800-
CENTRAL TEXAS

CITY           SKY/WX    TMP DP  RH WIND       PRES   REMARKS
WACO           CLEAR     47  40  76 CALM      30.28S
WACO-MCGREGOR  CLEAR     47  37  68 W3        30.28F
HILLSBORO      CLEAR     48  41  74 CALM      30.28S
MEXIA          CLEAR     55  41  59 NE5       30.27S
HEARNE         CLEAR     46  42  84 CALM      30.27S
CAMERON        CLEAR     51  40  68 NW5       30.27S
TEMPLE         CLEAR     45  39  79 NW7       30.28F
KILLEEN        CLEAR     52  39  61 NE5       30.27F
KILLEEN-SKYLRK CLEAR     54  40  59 NW6       30.28F
FORT HOOD      CLEAR     52  40  64 CALM      30.24F
GATESVILLE     CLEAR     46  39  76 CALM      30.30S
HAMILTON       CLEAR     52  39  61 SW3       30.30S
LAMPASAS       PTCLDY    49  41  74 CALM      30.27F HAZE
$$

TXZ095>097-106>112-122>126-135>138-148>153-164>167-170800-
EAST TEXAS

CITY           SKY/WX    TMP DP  RH WIND       PRES   REMARKS
PARIS          CLEAR     49  43  80 E3        30.30S
SULPHUR SPRNGS CLEAR     48  46  93 CALM      30.32R
MOUNT PLEASANT CLEAR     44  43  97 CALM      30.31R
GILMER         CLEAR     45  43  91 CALM      30.29S
MINEOLA        CLEAR     43  41  93 CALM      30.29S
TYLER          CLEAR     48  41  76 CALM      30.28S
LONGVIEW       CLEAR     50  42  74 CALM      30.27S
MARSHALL       CLEAR     45  42  89 CALM      30.30S
ATHENS         CLEAR     45  43  93 CALM      30.27S
PALESTINE      CLEAR     53  42  66 CALM      30.29S
JACKSONVILLE   CLEAR     54  42  63 NE6       30.29S
HENDERSON      CLEAR     43  41  91 CALM      30.29S
CENTER         SUNNY     53  45  75 CALM      30.27S
NACOGDOCHES    CLEAR     44  41  89 CALM      30.27S
LUFKIN         CLEAR     52  45  77 N5        30.25S
$$

SUPPLEMENTAL OBSERVATIONS (NWS FORT WORTH AREA)

CITY           SKY/WX    TMP DP  RH WIND       PRES   REMARKS
DENISON DAM      N/A     54  48  82 CALM        N/A
CADDO GRASSLND   N/A     46  43  87 CALM        N/A
LBJ GRASSLAND    N/A     48  37  66 N1          N/A
POSSUM KINGDOM   N/A     52  45  76 SE5         N/A
GRANBURY         N/A     45  39  81 S1          N/A
COMANCHE         N/A     54  34  47 SW5         N/A
MCGREGOR         N/A     45  36  70 CALM        N/A
TEMPLE           N/A     55  36  47 NE6         N/A
LAKE LIMESTONE   N/A     55  41  58 NE6         N/A
$$

SUPPLEMENTAL OBSERVATIONS (NWS NORMAN AREA)

CITY           SKY/WX    TMP DP  RH WIND       PRES   REMARKS
GOODLETT         N/A     47  36  66 SW5       30.26F
ODELL            N/A     51  40  63 S9        30.27F
CROWELL          N/A     48  35  62 SW5       30.28F
KNOX CITY        N/A     46  35  65 W2        30.29S
SEYMOUR          N/A     48  40  73 S2        30.29S
$$

SUPPLEMENTAL OBSERVATIONS (NWS SAN ANGELO AREA)

CITY           SKY/WX    TMP DP  RH WIND       PRES   REMARKS
WEINERT          N/A     49  39  69 S5        30.29S
HASKELL          N/A     50  37  61 S5        30.29F
THROCKMORTON     N/A     49  43  80 SW2       30.30S
STAMFORD         N/A     47  38  73 S3        30.30S
CLYDE            N/A     53  37  55 SE8       30.31F
HAMBY            N/A     45  36  70 SE2         N/A
$$

SUPPLEMENTAL OBSERVATIONS (NWS SHREVEPORT AREA)

CITY           SKY/WX    TMP DP  RH WIND       PRES   REMARKS
TEXARKANA        N/A     43  41  93 CALM        N/A
LINDEN           N/A     45  41  87 CALM        N/A
CADDO LAKE       N/A     39  37  93 CALM        N/A
LUFKIN           N/A     48  45  87 MISG        N/A
N SABINE NF      N/A     48  45  87 MISG        N/A
$$

SUPPLEMENTAL OBSERVATIONS ARE A COLLECTION OF AUTOMATED INSTRUMENTS
THAT ARE MAINTAINED BY A VARIETY OF FEDERAL AND STATE AGENCIES.
CERTAIN ELEMENTS...SUCH AS HUMIDITY VALUES AND SUSTAINED WIND
SPEEDS...MAY BE APPROXIMATED.




USA.gov is the U.S. government's official web portal to all federal, state and local government web resources and services.